This demonstration page uses our WeatherBlox Daily Observations layout. Learn more.

Left ArrowRight Arrow

38.83388, -104.82136

Hourly Observations for March 18, 2021

Temp ( °F °C ) Dew Point ( °F °C ) Humidity (%) Winds ( mph kmh ) Pressure ( in mb ) Visibility ( mi km ) Precip ( " mm )
12:58 am 00:58 Clear 27 -3 15 -9.2 63 63 Calm 29.96 1015 10 16 0.00 0.00
1:58 am 01:58 Clear 26 -3.3 15 -9.6 62 62 Calm 29.96 1015 10 16 0.00 0.00
2:58 am 02:58 Clear 26 -3.5 14 -10 61 61 Calm 29.95 1014 10 16 0.00 0.00
4:58 am 04:58 Clear 25 -3.9 13 -10.5 61 61 Calm 29.96 1015 10 16 0.00 0.00
6:58 am 06:58 Clear 26 -3.4 12 -11.2 55 55 Calm 30.00 1016 10 16 0.00 0.00
9:58 am 09:58 Sunny 33 0.6 18 -7.7 54 54 Calm 30.02 1017 10 16 0.00 0.00
10:58 am 10:58 Sunny 37 2.7 20 -6.4 52 52 ESE 6 9 30.02 1017 10 16 0.00 0.00
11:58 am 11:58 Sunny 40 4.7 20 -6.7 44 44 SE 9 15 30.00 1016 10 16 0.00 0.00
12:58 pm 12:58 Sunny 42 5.7 17 -8.4 36 36 SE 8 13 29.99 1016 10 16 0.00 0.00
1:58 pm 13:58 Sunny 45 7.1 15 -9.2 31 31 ESE 12 19 29.96 1015 10 16 0.00 0.00
2:22 pm 14:22 Sunny 45 7 16 -9 31 31 SSE 15 24 29.95 1014 10 16 0.00 0.00
2:58 pm 14:58 Sunny 45 7 14 -10.1 29 29 SE 9 15 29.94 1014 10 16 0.00 0.00
3:58 pm 15:58 Sunny 45 7.1 13 -10.6 27 27 SE 15 24 29.94 1014 10 16 0.00 0.00
4:58 pm 16:58 Sunny 43 6.3 12 -11 28 28 S 14 22 29.96 1015 10 16 0.00 0.00
5:58 pm 17:58 Sunny 42 5.8 12 -11 29 29 SSE 16 26 29.96 1015 10 16 0.00 0.00
6:58 pm 18:58 Sunny 41 5.2 13 -10.7 31 31 S 14 22 29.97 1015 10 16 0.00 0.00
7:58 pm 19:58 Clear 40 4.5 13 -10.7 33 33 S 13 20 29.97 1015 10 16 0.00 0.00
8:58 pm 20:58 Partly Cloudy 38 3.3 14 -10 37 37 SSE 15 24 30.01 1016 10 16 0.00 0.00
9:58 pm 21:58 Mostly Cloudy 38 3.1 14 -10 38 38 S 15 24 30.00 1016 10 16 0.00 0.00
10:58 pm 22:58 Mostly Cloudy 35 1.7 16 -8.9 46 46 SSE 16 26 30.00 1016 10 16 0.00 0.00
11:58 pm 23:58 Mostly Cloudy 35 1.8 17 -8.5 47 47 S 13 20 29.97 1015 10 16 0.00 0.00

Powered by AerisWeather